STARLINK AC (44261 NORAD) Tracking and Keplerian Element Data

This shows tracking and keplerian element data for the satellite.

Feedback or suggestion? Click here.




ElementValue
Catalog44261
NameSTARLINK AC
Epoch Orbit370
Epoch Day173.85844086
Epoch Year2019
RAAN38.5293
Inclination53.0019
Eccentricity0.0002113
Argument of Perigee109.4611
Mean Anonmoly250.6605
Mean Motion15.0553268
Decay Rate1.985E-05
L11 44261U 19029AC 19173.85844086 .00001985 00000-0 15557-3 0 9991
L22 44261 53.0019 38.5293 0002113 109.4611 250.6605 15.05532680 3705

Live tracking and technical data element details for STARLINK AC (NORAD 44261). STARLINK AC can be tracked NOW for your location showing map with azimuth and elevation plus other details from your city location.

Track the satellite on the map from your city or location and see movement details for azimuth, elevation, latitude, longitude, range, height, and movement on the map or in text.







IsCatalogInMostPopularTable: catalog: 44261, numindb: 17
Update: records affected: 1



GetName: 44261 STARLINK AC

Hit Count: updated at: Sun, 21 Jul 2019 21:28:40 GMT